Home > Time Zones > World Clock > Weather > Oman > Muscat > Past weeks

Flag for Oman Weather past 2 weeks in Muscat, Oman

Now
84 °F

Clear.


Feels Like: 96 °F
Forecast: 83 / 89 °F
Wind: 15 mph from Northeast

Location: International Airport

Current Time: Aug 29, 2014 at 5:47:15 AM

Latest Report: Aug 29, 2014 at 4:50 AM


Visibility: 4 mi

Pressure: 29.62 "Hg

Humidity: 84%

Dew point: 79 °F

Location of MuscatLocation

Historic Weather in Muscat — Graph

°F

Muscat temperature yesterday

Maximum temperature yesterday: 95 °F (at 9:50 AM)
Minimum temperature yesterday: 84 °F (at 5:50 AM)
Average temperature yesterday: 89 °F

Past Weeks' High & Low Weather Summary

 TemperatureHumidityPressure
High95 °F (Aug 28, 9:50 AM)94% (Aug 17, 4:50 AM)29.80 "Hg (Aug 17, 4:50 AM)
Low81 °F (Aug 14, 4:50 AM)47% (Aug 28, 7:50 AM)29.45 "Hg (Aug 15, 2:50 PM)
Average87 °F78%29.61 "Hg
* Reported Aug 14 4:50 AM — Aug 29 4:50 AM, Muscat, Weather by CustomWeather, © 2014

Note: Actual official high and low records may vary slightly from our data, if they occured in-between our weather recording intervals... More about our weather records

Advertising

Muscat weather history for previous 24 hours

 ConditionsComfort  
Time TempWeatherWind HumidityBarometerVisibility
4:50 AM
Aug 29
84 °FClear.15 mph84%29.62 "Hg4 mi
3:50 AM84 °FClear.8 mph94%29.59 "Hg4 mi
2:50 AM84 °FClear.5 mph89%29.59 "Hg5 mi
1:50 AM86 °FClear.6 mph84%29.59 "Hg5 mi
12:50 AM86 °FClear.3 mph79%29.59 "Hg5 mi
11:50 PM
Aug 28
88 °FClear.1 mph79%29.62 "Hg5 mi
10:50 PM88 °FClear.1 mph79%29.62 "Hg5 mi
9:50 PM88 °FClear.2 mph84%29.62 "Hg5 mi
8:50 PM88 °FClear.3 mph79%29.62 "Hg5 mi
7:50 PM88 °FPassing clouds.2 mph84%29.59 "Hg5 mi
6:50 PM88 °FClear.6 mph84%29.59 "Hg4 mi
5:50 PM90 °FPassing clouds.8 mph75%29.59 "Hg4 mi
4:50 PM90 °FPassing clouds.14 mph75%29.56 "Hg4 mi
3:50 PM91 °FPassing clouds.17 mph71%29.56 "Hg4 mi
2:50 PM90 °FPassing clouds.20 mph75%29.59 "Hg4 mi
1:50 PM90 °FClear.17 mph75%29.59 "Hg4 mi
12:50 PM91 °FClear.17 mph75%29.62 "Hg5 mi
11:50 AM91 °FClear.16 mph71%29.62 "Hg4 mi
10:50 AM93 °FClear.14 mph63%29.62 "Hg4 mi
9:50 AM95 °FClear.13 mph60%29.65 "Hg5 mi
8:50 AM93 °FClear.6 mph63%29.62 "Hg5 mi
7:50 AM93 °FClear.3 mph47%29.62 "Hg5 mi
6:50 AM90 °FPassing clouds.2 mph63%29.59 "Hg5 mi
5:50 AM84 °FPassing clouds.2 mph70%29.59 "Hg4 mi
Weather by CustomWeather, © 2014

See weather overviewHow to use our weather pages